Das Wetter in  D-61279 Heinzenberg / Taunus





Wetter Minimum- & Maximum-Werte im Juli 2008

Standort: Heinzenberg / Taunus - Höhe 297 m         8° 24' 1" Ost 50° 21' 51" Nord
(   3-stündige Aktualisierung    letzte Aktualisierung um 20:46 am 31.07.2008  )


Messgrösse

Minimum

Maximum

Durchschnitt

Temperatur West /
Luftfeuchte West
Anklicken für Monats-Diagramm

7,1 °C

06:08
14.07.2008

31 %

18:14
10.07.2008

33,2 °C

16:37
02.07.2008

94 %

08:11
22.07.2008

Temp

17,9 °C

Feuchte

70 %

Temperatur Ost /
Luftfeuchte Ost
Anklicken für Monats-Diagramm

6,8 °C

06:03
14.07.2008

--

--
--

33,3 °C

16:32
02.07.2008

--

--
--

17,9 °C

--

Luftdruck Anklicken für Monats-Diagramm

1005,1 hPa

16:52
07.07.2008

1028,4 hPa

06:19
15.07.2008

1015,1 hPa

Taupunkt

3,8 °C

05:58
14.07.2008

21,4 °C

12:49
27.07.2008

11,9 °C

Windchill
( gefühlte Temperatur )

-0,5 °C

06:45
21.07.2008

33,2 °C

16:37
02.07.2008

16,3 °C

Windgeschwindigkeit /
Windrichtung
Anklicken für Monats-Diagramm

---

57,9 km/h / SO

12:41
29.07.2008

9,4 km/h
W

Helligkeit /
Sonnenschein
Anklicken für Monats-Diagramm
Anklicken für Monats-Diagramm

Sonnenschein:

202:22 Stunden

Max: 13:20 Std am
15.07.2008

121 klux

13:33
08.07.2008

34 klux

Solarstrahlung Anklicken für Monats-Diagramm

---

828 W/m²

13:33
08.07.2008

253 W/m²

Regenmenge
    Juli 2008
Anklicken für Monats-Diagramm

Insgesamt 56,8 l/m²

in 44:26 Stunden
an 21 Tagen

16,9 l/m²

17:04
26.07.2008

Gesamtmenge

56,8 l/m²

Regen-Tage
    Juli 2008
Anklicken für Monats-Diagramm

>   0 mm/Tag

>   2 mm/Tag

>   5 mm/Tag

> 10 mm/Tag

> 20 mm/Tag

21 Tage     
9 Tage     
4 Tage     
  1 Tag     
0 Tage     

Eisige Tage Juli 2008 / 2007

Tmin ≤ -10°C     

0 Tage

/

0 Tage

Eistage Juli 2008 / 2007

Tmax <     0°C     

0 Tage

/

0 Tage

Frosttage Juli 2008 / 2007

Tmin ≤     0°C     

0 Tage

/

0 Tage

Kalte Tage Juli 2008 / 2007

Tmax <   10°C     

0 Tage

/

0 Tage

Warme Tage Juli 2008 / 2007

Tmax ≥   20°C     

27 Tage

/

21 Tage

Sommertage Juli 2008 / 2007

Tmax ≥   25°C     

14 Tage

/

8 Tage

Heisse Tage Juli 2008 / 2007

Tmax ≥   30°C     

5 Tage

/

3 Tage


Monatsdiagramm Juli 2008

Die Kurven zeigen den Durchschnittswert des jeweiligen Tages an


Wetter-Monatsübersicht Juli 2008
Datum
  Temperatur
   Luftdruck
   Wind
  Regen
   Luftfeuchte
   Helligkeit

Sonnen-
schein

Ø
Temp.

Min.
Temp.

Max.
Temp.

Ø
Luftdruck

Min.
Luftdruck

Max.
Luftdruck

Ø-Geschw.
Haupt-Richtg.

Max.
Wind

Menge /
Dauer

Ø
Feuchte

Min.
Feuchte

Max.
Feuchte

Ø
Helligkeit

Max.
Helligkeit

1.
Juli
20,2 °C9,9 °C
06:02
30,0 °C
16:27
1016,8 hPa1012,5 hPa
18:22
1021,7 hPa
01:27
4,1 km/h
SO
27,5 km/h
11:47  
---
60 %39 %
16:37
84 %
08:02
47,2 klux88,4 klux
13:17
13:00 Std 
2.
Juli
23,7 °C14,4 °C
06:07
33,2 °C
16:37
1010,4 hPa1006,0 hPa
18:42
1014,1 hPa
02:32
7,2 km/h
W-SW
44,7 km/h
23:18  
---
57 %32 %
15:32
81 %
08:02
47,4 klux88,7 klux
13:32
12:55 Std 
3.
Juli
18,7 °C13,9 °C
23:59
22,9 °C
12:53
1010,6 hPa1008,7 hPa
06:03
1014,3 hPa
23:59
7,7 km/h
W
30,5 km/h
02:03  
0,2 l/m²
3:50 Stunden
78 %66 %
12:53
90 %
21:33
15,6 klux51,7 klux
12:38
45 Min 
4.
Juli
16,9 °C12,1 °C
03:49
24,0 °C
17:14
1015,8 hPa1014,2 hPa
18:29
1017,5 hPa
23:59
10,6 km/h
W
30,3 km/h
13:24  
0,2 l/m²
5 Minuten
70 %40 %
17:34
91 %
04:34
44,3 klux105,0 klux
13:04
10:15 Std 
5.
Juli
17,7 °C8,6 °C
06:39
26,2 °C
16:34
1015,0 hPa1011,9 hPa
17:59
1018,1 hPa
06:19
3,5 km/h
W-SW
19,6 km/h
12:49  
---
62 %37 %
17:14
87 %
08:04
44 klux102 klux
13:09
9:35 Std 
6.
Juli
18,9 °C15,6 °C
23:57
21,5 °C
13:16
1009,4 hPa1006,3 hPa
18:46
1013,8 hPa
00:16
9,2 km/h
W-SW
28,8 km/h
14:26  
0,2 l/m²
30 Minuten
65 %52 %
14:41
77 %
08:01
24 klux76 klux
10:41
1:50 Std 
7.
Juli
15,5 °C12,1 °C
04:52
21,6 °C
16:52
1007,5 hPa1005,1 hPa
16:52
1008,3 hPa
04:52
17,8 km/h
W-SW
52,2 km/h
15:07  
1,2 l/m²
2:40 Stunden
68 %40 %
16:52
81 %
08:47
35,3 klux111,0 klux
12:42
5:45 Std 
8.
Juli
15,4 °C13,3 °C
06:28
20,8 °C
16:33
1010,7 hPa1008,1 hPa
00:43
1015,4 hPa
23:53
24,8 km/h
W
47,6 km/h
17:48  
0,9 l/m²
1:10 Stunden
70 %46 %
16:43
79 %
06:28
29 klux121 klux
13:33
3:30 Std 
9.
Juli
15,6 °C11,6 °C
05:03
20,8 °C
14:28
1015,7 hPa1014,5 hPa
14:28
1016,6 hPa
07:08
17,4 km/h
W
37,2 km/h
13:53  
---
1:15 Stunden
68 %47 %
14:38
80 %
05:38
35 klux111 klux
13:18
4:40 Std 
10.
Juli
21,4 °C14,4 °C
01:39
29,7 °C
16:29
1012,0 hPa1008,5 hPa
18:19
1016,3 hPa
00:54
14,0 km/h
W-SW
47,8 km/h
13:59  
---
45 Minuten
59 %31 %
18:14
83 %
01:44
45 klux111 klux
12:14
9:15 Std 
11.
Juli
18,2 °C16,1 °C
05:00
23,0 °C
13:05
1009,2 hPa1007,6 hPa
19:55
1009,9 hPa
05:00
9,7 km/h
W-SW
37,3 km/h
13:20  
3,2 l/m²
3:15 Stunden
76 %64 %
00:00
88 %
08:50
18 klux106 klux
12:55
1:00 Std 
12.
Juli
16,6 °C12,6 °C
23:32
21,5 °C
16:26
1010,1 hPa1008,9 hPa
03:16
1012,4 hPa
23:32
12,7 km/h
W-SW
35,4 km/h
09:21  
---
1:50 Stunden
72 %50 %
16:31
81 %
05:01
26 klux106 klux
15:51
3:20 Std 
13.
Juli
15,7 °C11,6 °C
04:47
22,6 °C
17:57
1013,3 hPa1011,4 hPa
03:12
1017,7 hPa
23:58
5,9 km/h
NW
25,5 km/h
15:27  
---
67 %41 %
17:57
88 %
08:37
34 klux110 klux
12:37
6:00 Std 
14.
Juli
15,1 °C7,1 °C
06:08
23,4 °C
16:28
1021,8 hPa1017,7 hPa
00:03
1026,7 hPa
23:54
6,5 km/h
NW
26,4 km/h
15:23  
---
63 %41 %
15:23
84 %
08:03
37 klux107 klux
13:38
6:30 Std 
15.
Juli
18,7 °C9,0 °C
06:19
28,0 °C
16:59
1025,7 hPa1022,1 hPa
18:24
1028,4 hPa
06:19
11,3 km/h
W
38,3 km/h
15:44  
---
58 %35 %
16:09
84 %
08:09
48 klux97 klux
12:09
13:20 Std 
16.
Juli
17,7 °C13,4 °C
23:51
24,9 °C
13:50
1019,7 hPa1016,1 hPa
13:50
1024,3 hPa
01:20
10,7 km/h
W
40,8 km/h
15:45  
4,9 l/m²
2:10 Stunden
73 %46 %
13:25
87 %
19:40
25,7 klux105,0 klux
12:30
2:50 Std 
17.
Juli
15,5 °C12,2 °C
07:06
20,5 °C
16:06
1015,4 hPa1012,6 hPa
16:26
1018,6 hPa
02:31
5,9 km/h
W
30,1 km/h
22:01  
---
55 Minuten
73 %48 %
16:06
90 %
07:06
31 klux100 klux
13:31
3:35 Std 
18.
Juli
14,9 °C12,4 °C
06:37
18,0 °C
14:52
1013,0 hPa1012,3 hPa
03:27
1014,2 hPa
23:53
9,5 km/h
W-SW
34,0 km/h
14:57  
0,2 l/m²
1:55 Stunden
76 %63 %
16:32
86 %
06:52
13 klux87 klux
14:02
5 Min 
19.
Juli
17,0 °C13,2 °C
22:59
24,0 °C
17:03
1010,5 hPa1006,9 hPa
17:03
1014,3 hPa
00:33
13,9 km/h
W-SW
56,2 km/h
16:43  
6,5 l/m²
3:30 Stunden
74 %50 %
16:38
87 %
23:04
28,0 klux109,0 klux
12:38
3:15 Std 
20.
Juli
13,7 °C9,6 °C
23:55
19,5 °C
13:34
1013,9 hPa1011,6 hPa
16:09
1018,0 hPa
23:55
10,6 km/h
W
45,0 km/h
16:59  
3,6 l/m²
1:45 Stunden
80 %57 %
16:09
90 %
07:19
33 klux114 klux
13:19
6:00 Std 
21.
Juli
10,9 °C8,1 °C
05:25
14,3 °C
13:55
1018,3 hPa1017,4 hPa
13:55
1019,9 hPa
22:05
19,0 km/h
W
45,7 km/h
12:55  
5,8 l/m²
7:25 Stunden
83 %69 %
14:40
91 %
21:45
23 klux114 klux
13:25
2:10 Std 
22.
Juli
12,4 °C10,0 °C
05:36
16,4 °C
17:31
1022,9 hPa1019,8 hPa
03:11
1026,1 hPa
23:47
11,0 km/h
W
27,5 km/h
00:36  
5,6 l/m²
5:05 Stunden
88 %77 %
17:46
94 %
08:11
20 klux76 klux
15:01
1:20 Std 
23.
Juli
16,3 °C8,0 °C
06:17
25,7 °C
17:07
1024,6 hPa1021,3 hPa
19:22
1026,4 hPa
06:17
4,1 km/h
SO
17,0 km/h
15:02  
---
70 %43 %
16:32
93 %
08:37
47,6 klux98,9 klux
13:17
12:35 Std 
24.
Juli
18,4 °C8,9 °C
06:33
27,3 °C
17:28
1019,9 hPa1015,1 hPa
19:58
1024,1 hPa
03:28
7,9 km/h
SO
28,0 km/h
12:33  
---
62 %39 %
17:38
88 %
08:03
48,1 klux101,0 klux
13:13
12:55 Std 
25.
Juli
22,0 °C14,6 °C
05:18
29,4 °C
16:28
1013,6 hPa1010,5 hPa
16:13
1017,0 hPa
02:03
7,8 km/h
SO
24,6 km/h
13:13  
2,9 l/m²
35 Minuten
59 %43 %
18:38
78 %
23:59
46 klux100 klux
13:58
11:16 Std 
26.
Juli
20,1 °C16,5 °C
07:04
30,3 °C
15:09
1013,5 hPa1011,4 hPa
15:09
1016,1 hPa
23:55
3,7 km/h
SO
38,8 km/h
17:04  
16,9 l/m²
1:00 Stunden
81 %47 %
15:09
91 %
23:15
29 klux93 klux
13:34
3:35 Std 
27.
Juli
20,6 °C15,6 °C
07:05
28,8 °C
15:54
1016,0 hPa1014,1 hPa
17:59
1017,2 hPa
07:25
2,6 km/h
W-NW
17,1 km/h
16:49  
0,6 l/m²
1:25 Stunden
82 %54 %
16:09
94 %
08:20
33,8 klux90,9 klux
13:09
4:40 Std 
28.
Juli
22,9 °C14,6 °C
06:50
31,0 °C
16:45
1014,7 hPa1012,4 hPa
18:20
1016,3 hPa
06:50
6,0 km/h
SO
26,3 km/h
11:45  
---
65 %38 %
17:50
92 %
08:20
44,9 klux96,8 klux
13:55
11:20 Std 
29.
Juli
20,2 °C15,3 °C
06:16
26,4 °C
12:16
1015,9 hPa1013,7 hPa
00:01
1018,9 hPa
22:57
4,8 km/h
SO
57,9 km/h
12:41  
2,9 l/m²
1:15 Stunden
73 %55 %
12:36
88 %
15:21
33,3 klux94,2 klux
15:26
7:30 Std 
30.
Juli
21,5 °C14,8 °C
06:42
29,9 °C
17:52
1018,3 hPa1015,6 hPa
17:52
1020,3 hPa
07:52
3,4 km/h
SO
22,0 km/h
17:32  
1,2 l/m²
2:06 Stunden
75 %49 %
18:02
91 %
08:12
38,0 klux98,7 klux
13:12
7:31 Std 
31.
Juli
23,2 °C16,6 °C
07:08
30,1 °C
17:28
1015,8 hPa1012,5 hPa
18:48
1018,9 hPa
01:28
7,2 km/h
SO
26,9 km/h
12:53  
---
70 %47 %
17:43
91 %
08:18
44,0 klux93,5 klux
11:28
10:05 Std 



Juli
2008

Temperatur

  

Luftdruck

  

Wind

  

Regen

  

Luftfeuchte

  

Helligkeit

Sonnen-
schein

Ø

Min

Max

Ø

Min

Max

Ø

Max

Max

Ø

Min

Max

Ø

Max

Max

17,9 °C

7,1 °C

06:08 Uhr
14.07.2008

33,2 °C

16:37 Uhr
02.07.2008

1015,1 hPa

1005,1 hPa

16:52 Uhr
07.07.2008

1028,4 hPa

06:19 Uhr
15.07.2008

9,4 km/h

W

57,9 km/h

12:41 Uhr
29.07.2008

16,9 l/m²

1:00 Stunden
26.07.2008

70 %

31 %

18:14 Uhr
10.07.2008

94 %

08:11 Uhr
22.07.2008

34,5 klux

121,0 klux

13:33 Uhr
08.07.2008

13:20 Std

am
15.07.2008

Gesamt

Gesamt

56,8 l/m²

21 Tage
44:26 h

202:22 Std


Wetter-Diagramme Juli 2008     Heinzenberg / Taunus   
TemperaturLuftfeuchte
SolarstrahlungLuftdruck
HelligkeitSonnenschein
RegenmengeRegendauer
Wind-GeschwindigkeitWind-Richtung